[[{"header":{"parameterUnit":"m.s-1","parameterCategory":1,"la1":30.2991,"la2":30.254,"lo1":-89.0895,"lo2":-89.0444,"dy":0.0017,"dx":0.0017,"nx":28,"ny":28,"refTime":"2024-04-02T03:00:00:Z","depth":0,"parameterNumber":2,"parameterNumberName":"U-component_of_WINDS"},"data":[0,0,0,0,0,0,0,0,0,0,0,0,0,0,0,0,0,0,0,0,0,0,0,0,0,0,0,0,0,0,0,0,0,0,0,0,0,0,0,0,0,0,0,0,0,0,0,0,0,0,0,0,0,0,0,0,0,0,5.4979,5.498,0,5.5001,5.5001,5.5001,5.4929,5.4926,5.4924,5.4922,5.4947,5.4949,5.4952,0,0,0,0,0,0,0,0,0,0,0,0,0,5.488,5.4882,5.4979,5.498,5.498,5.5001,5.5001,5.5001,5.4929,5.4926,5.4924,5.4921,5.4946,5.4949,5.4952,0,0,0,0,0,0,0,0,0,0,0,0,0,5.4915,5.4883,5.4979,5.4946,5.4943,5.5001,5.5001,5.5001,5.4929,5.4926,5.4923,5.492,5.4945,5.4949,5.4953,5.5044,0,0,5.4965,5.4967,0,0,0,0,0,0,0,0,5.4913,5.4919,5.4951,5.4949,5.4946,5.4959,5.4975,5.5016,5.493,5.4935,5.4922,5.4918,5.4953,5.4957,5.4968,5.5045,5.5046,5.4965,5.4968,5.497,5.4971,0,0,0,0,0,0,0,5.4911,5.4917,5.4988,5.4951,5.4948,5.4932,5.4933,5.4982,5.4962,5.4934,5.4929,5.4932,5.4951,5.4964,5.4968,5.5046,5.4965,5.4969,5.4971,5.4973,5.5202,5.5206,0,0,0,0,0,0,5.4912,5.4916,5.4987,5.4988,5.4921,5.4936,5.4938,5.4958,5.4962,5.4959,5.4935,5.4929,5.4959,5.4963,5.4969,5.5077,5.497,5.4973,5.4976,5.5199,5.5203,5.5207,0,0,0,0,0,0,5.491,5.4919,5.4986,5.4951,5.4958,5.4941,5.4965,5.496,5.4972,5.4962,5.4959,5.4952,5.4956,5.4963,5.5026,5.5077,5.4975,5.4979,5.5195,5.52,5.5205,5.5294,0,0,0,0,0,0,5.4908,5.4919,5.4952,5.4952,5.496,5.5042,5.4968,5.4963,5.4979,5.4971,5.4977,5.4975,5.4954,5.502,5.503,5.5081,5.4982,5.519,5.5197,5.5204,5.5286,5.5302,5.5315,0,0,0,0,0,5.4904,5.4976,5.4954,5.4963,5.5001,5.5045,5.505,5.5024,5.4984,5.5018,5.5012,5.4974,5.507,5.5028,5.5038,5.509,5.5187,5.5195,5.5203,5.528,5.5299,5.5315,0,0,0,0,0,0,5.4982,5.4975,5.4951,5.5024,5.5036,5.5033,5.5074,5.5045,5.5069,5.506,5.5029,5.5031,5.51,5.5102,5.5054,5.518,5.5121,5.5132,5.5176,5.5194,5.5208,5.5206,5.4985,0,0,0,0,0,5.5007,5.5043,5.5035,5.5101,5.5108,5.5091,5.5109,5.5089,5.51,5.5105,5.5103,5.5117,5.515,5.5172,5.5202,5.5287,5.5288,5.5328,5.5343,5.5354,5.5364,5.5411,5.543,5.5234,5.5234,5.5234,0,0,5.506,5.5061,5.5085,5.5117,5.5123,5.5162,5.5095,5.5139,5.5168,5.5111,5.5171,5.5171,5.5184,5.5259,5.5292,5.5263,5.5419,5.5365,5.5374,5.5377,5.5422,5.544,5.5457,5.524,5.5239,5.5238,0,0,5.5177,5.5181,5.5237,5.5246,5.5257,5.5245,5.5259,5.5262,5.526,5.5319,5.5279,5.5314,5.5371,5.5383,5.5396,5.5522,5.5489,5.5533,5.5607,5.5654,5.5669,5.5683,5.5729,5.5746,5.5543,5.5543,5.5543,0,5.5242,5.5297,5.5269,5.5316,5.5333,5.5284,5.5342,5.5352,5.5373,5.5386,5.5353,5.5426,5.5431,5.5509,5.554,5.5552,5.5569,5.5531,5.5669,5.5683,5.5695,5.5738,5.5756,5.5548,5.5548,5.5547,5.5547,0,5.5378,5.5417,5.5462,5.5483,5.5505,5.5557,5.5539,5.5564,5.5543,5.5536,5.5599,5.5604,5.5636,5.5653,5.5633,5.573,5.5711,5.5674,5.5614,5.5719,5.576,5.5776,5.5556,5.5554,5.5552,5.5551,0,0,5.554,5.5549,5.5565,5.5576,5.5587,5.5618,5.567,5.57,5.5723,5.5741,5.5784,5.5836,5.5803,5.5818,5.5799,5.584,5.5942,5.5799,5.5798,5.5826,5.6052,5.6079,5.6099,5.5921,5.5924,5.5927,5.6051,0,5.5656,5.5743,5.5721,5.5808,5.5846,5.5803,5.5849,5.5861,5.5857,5.589,5.5886,5.5923,5.5876,5.5886,5.5924,5.5921,5.5987,5.5912,5.5963,5.5965,5.596,5.612,5.6148,5.6265,5.6066,5.6069,5.6071,0,5.5801,5.5825,5.5916,5.5924,5.5939,5.598,5.6008,5.6039,5.6054,5.6049,5.6068,5.6042,5.6096,5.6037,5.6111,5.6061,5.608,5.6083,5.6087,5.609,5.6023,5.6128,5.6301,5.6319,5.6095,5.6093,5.6092,0,5.5912,5.5967,5.6029,5.604,5.605,5.608,5.6086,5.6098,5.6118,5.6144,5.6157,5.6189,5.6206,5.6232,5.6216,5.6174,5.6294,5.6233,5.6292,5.6292,5.6318,5.6316,5.6497,5.6331,5.6331,5.6331,5.633,0,5.6043,5.6101,5.608,5.6118,5.6182,5.6158,5.6223,5.6224,5.6236,5.6275,5.624,5.6278,5.6255,5.6292,5.628,5.6345,5.6353,5.6351,5.6347,5.6354,5.6354,5.6366,5.6357,5.6335,5.6334,5.6334,5.6333,0,5.6177,5.6165,5.623,5.6236,5.6238,5.6286,5.6291,5.6328,5.6322,5.6373,5.6383,5.6375,5.6417,5.6404,5.6449,5.6442,5.6524,5.6509,5.6518,5.6515,5.6575,5.6569,5.6769,5.6794,5.6612,5.6614,5.6616,0,5.6261,5.6305,5.6315,5.6339,5.6348,5.6386,5.6408,5.6387,5.6411,5.6434,5.6469,5.6507,5.6537,5.6606,5.6605,5.664,5.6627,5.6695,5.6632,5.6638,5.6629,5.6626,5.6631,5.6707,5.6709,5.6711,5.6712,0,5.6412,5.6405,5.6436,5.6468,5.6495,5.6518,5.6539,5.6561,5.6542,5.6571,5.6613,5.6637,5.6684,5.6723,5.6756,5.6764,5.6736,5.6732,5.6748,5.6755,5.6758,5.6758,5.6552,5.6727,5.6726,5.6725,5.6724,5.6723,5.6524,5.6561,5.6576,5.6613,5.6627,5.6648,5.6683,5.6683,5.6718,5.6754,5.6741,5.679,5.6807,5.6848,5.6861,5.69,5.6874,5.6896,5.6902,5.6908,5.6916,5.6753,5.6906,5.6905,5.6905,5.6905,5.6904,0,5.6673,5.6681,5.6716,5.6746,5.6777,5.6748,5.6771,5.6798,5.6842,5.686,5.6891,5.6941,5.698,5.6984,5.7021,5.7052,5.7041,5.7063,5.706,5.7063,5.6936,5.6919,5.7072,5.7072,5.7072,5.7072,5.7072,5.7072,5.6754,5.6817,5.6812,5.6883,5.6891,5.6938,5.6954,5.6974,5.6988,5.7046,5.7078,5.708,5.7094,5.7132,5.7168,5.7168,5.7183,5.7211,5.7206,5.7088,5.7071,5.7055,5.7039,5.7214,5.7215,5.7329,5.733,5.7331]},{"header":{"parameterUnit":"m.s-1","parameterCategory":1,"la1":30.2991,"la2":30.254,"lo1":-89.0895,"lo2":-89.0444,"dy":0.0017,"dx":0.0017,"nx":28,"ny":28,"refTime":"2024-04-02T03:00:00:Z","depth":0,"parameterNumber":3,"parameterNumberName":"V-component_of_WINDS"},"data":[0,0,0,0,0,0,0,0,0,0,0,0,0,0,0,0,0,0,0,0,0,0,0,0,0,0,0,0,0,0,0,0,0,0,0,0,0,0,0,0,0,0,0,0,0,0,0,0,0,0,0,0,0,0,0,0,0,0,1.7553,1.7555,0,1.773,1.7732,1.7734,1.7775,1.7773,1.7772,1.7771,1.7955,1.7961,1.7967,0,0,0,0,0,0,0,0,0,0,0,0,0,1.7251,1.7256,1.7552,1.7555,1.7557,1.773,1.7732,1.7734,1.7775,1.7773,1.7772,1.777,1.7953,1.796,1.7967,0,0,0,0,0,0,0,0,0,0,0,0,0,1.74,1.7258,1.7552,1.7598,1.7604,1.7729,1.7732,1.7735,1.7775,1.7773,1.7772,1.777,1.7951,1.796,1.7968,1.8062,0,0,1.7996,1.8,0,0,0,0,0,0,0,0,1.7392,1.7411,1.7589,1.7595,1.7602,1.7728,1.7693,1.7845,1.7776,1.771,1.7771,1.7769,1.7881,1.7896,1.7933,1.807,1.8078,1.7997,1.8003,1.8006,1.8009,0,0,0,0,0,0,0,1.7381,1.7404,1.7623,1.7591,1.7599,1.761,1.7629,1.7722,1.7804,1.7716,1.7719,1.7739,1.7884,1.7924,1.7938,1.8081,1.7997,1.8005,1.801,1.8014,1.8303,1.8305,0,0,0,0,0,0,1.7363,1.7395,1.7617,1.7628,1.749,1.7617,1.7638,1.769,1.7803,1.7819,1.7741,1.7741,1.791,1.7927,1.7945,1.8061,1.8006,1.8015,1.802,1.8301,1.8303,1.8306,0,0,0,0,0,0,1.7356,1.7382,1.761,1.7513,1.7542,1.7624,1.7681,1.7694,1.7734,1.7822,1.7837,1.7767,1.7909,1.7932,1.8032,1.8068,1.8019,1.8027,1.8298,1.8302,1.8305,1.8295,0,0,0,0,0,0,1.7347,1.7379,1.7415,1.7513,1.7547,1.7694,1.7683,1.7699,1.7749,1.7751,1.785,1.7865,1.7909,1.8018,1.8041,1.808,1.8034,1.8295,1.83,1.8304,1.8292,1.8297,1.8302,0,0,0,0,0,1.7336,1.7406,1.7417,1.7443,1.7594,1.7696,1.7716,1.7765,1.7752,1.7789,1.7845,1.7862,1.806,1.8028,1.8054,1.8096,1.8293,1.8298,1.8303,1.829,1.8296,1.8302,0,0,0,0,0,0,1.7311,1.742,1.7433,1.7536,1.7606,1.7702,1.7751,1.777,1.7846,1.7844,1.7902,1.7924,1.8021,1.8069,1.8031,1.8192,1.8176,1.8187,1.8158,1.8164,1.8169,1.8156,1.8042,0,0,0,0,0,1.7318,1.7391,1.7482,1.7564,1.7599,1.7668,1.7715,1.7746,1.7822,1.7852,1.7916,1.7989,1.8068,1.8119,1.8196,1.8299,1.8322,1.8341,1.8345,1.8349,1.8358,1.8416,1.8426,1.8322,1.8322,1.8322,0,0,1.7332,1.74,1.7443,1.7561,1.7619,1.7694,1.7693,1.7773,1.7829,1.7864,1.7963,1.8012,1.8097,1.8199,1.8247,1.8242,1.8391,1.8355,1.8357,1.8365,1.8422,1.8432,1.844,1.8326,1.8325,1.8325,0,0,1.7396,1.7455,1.753,1.7588,1.7676,1.7721,1.7739,1.7833,1.7866,1.7966,1.7994,1.8062,1.8196,1.8256,1.8304,1.839,1.8408,1.8414,1.8439,1.8495,1.8503,1.8511,1.8542,1.8552,1.8422,1.8422,1.8422,0,1.7403,1.7517,1.7566,1.7645,1.7696,1.773,1.7807,1.7861,1.7969,1.8004,1.7996,1.8165,1.8225,1.8342,1.8363,1.84,1.8423,1.8403,1.8498,1.8506,1.8514,1.8544,1.8556,1.8422,1.8422,1.8422,1.8422,0,1.7521,1.7599,1.765,1.7753,1.7809,1.7886,1.7948,1.8,1.8026,1.8073,1.8174,1.8247,1.8339,1.8369,1.8396,1.849,1.8484,1.8486,1.8472,1.8523,1.8552,1.8564,1.8422,1.8422,1.8422,1.8422,0,0,1.7576,1.7704,1.7722,1.7769,1.7868,1.793,1.8008,1.8098,1.8141,1.8215,1.8283,1.8395,1.8398,1.8452,1.8486,1.8535,1.8599,1.8532,1.8535,1.8543,1.8707,1.8705,1.8718,1.8611,1.8614,1.8616,1.87,0,1.7652,1.7793,1.784,1.7957,1.803,1.8063,1.8132,1.82,1.8245,1.8315,1.8365,1.8444,1.8442,1.8475,1.8525,1.8581,1.8633,1.8575,1.8676,1.8679,1.8654,1.8734,1.8732,1.8808,1.8712,1.8714,1.8716,0,1.7761,1.7835,1.7959,1.8048,1.8081,1.8142,1.8228,1.8293,1.8371,1.8401,1.8461,1.8491,1.8575,1.8555,1.8672,1.8631,1.8675,1.8709,1.8713,1.8725,1.8701,1.8748,1.8834,1.8845,1.8734,1.8733,1.8732,0,1.7788,1.7919,1.8011,1.805,1.8156,1.8198,1.8245,1.8321,1.8372,1.8447,1.8481,1.8565,1.8612,1.8677,1.8729,1.8709,1.8841,1.8825,1.8869,1.8868,1.8896,1.8894,1.8991,1.8923,1.8923,1.8923,1.8922,0,1.7869,1.7944,1.8024,1.8081,1.8166,1.8219,1.8301,1.835,1.8417,1.8484,1.8518,1.858,1.8644,1.8715,1.8757,1.8847,1.8868,1.8895,1.8905,1.8893,1.8889,1.8923,1.8919,1.8926,1.8925,1.8924,1.8924,0,1.7915,1.7972,1.8073,1.8165,1.819,1.8249,1.8328,1.8384,1.843,1.8514,1.8537,1.8611,1.8696,1.8754,1.8863,1.8891,1.8989,1.8999,1.8963,1.8968,1.9009,1.9004,1.9131,1.9151,1.9069,1.907,1.907,0,1.7963,1.8021,1.8119,1.8166,1.8212,1.8287,1.8339,1.8393,1.8446,1.8539,1.8584,1.8671,1.8744,1.8878,1.8942,1.9025,1.9037,1.9076,1.905,1.9035,1.9039,1.9035,1.9041,1.908,1.9081,1.9081,1.9082,0,1.8043,1.8068,1.8141,1.8224,1.8285,1.8353,1.8421,1.8458,1.8524,1.8582,1.8669,1.8725,1.8836,1.8922,1.9012,1.9061,1.9083,1.9089,1.9104,1.9092,1.9069,1.9082,1.8974,1.9086,1.9086,1.9085,1.9085,1.9085,1.8092,1.8145,1.8222,1.8302,1.8359,1.8423,1.848,1.8533,1.8606,1.87,1.8728,1.8818,1.8895,1.9018,1.9068,1.914,1.9137,1.9158,1.9164,1.9168,1.9168,1.9056,1.9156,1.9156,1.9156,1.9156,1.9156,0,1.8173,1.8224,1.8298,1.8392,1.8455,1.8469,1.8546,1.8598,1.8677,1.8746,1.8817,1.8917,1.9,1.907,1.9157,1.9201,1.9214,1.9222,1.922,1.9231,1.9166,1.9145,1.9211,1.9211,1.9211,1.9211,1.9211,1.9211,1.8223,1.8314,1.8348,1.8468,1.8519,1.8607,1.8649,1.8708,1.8764,1.8873,1.8943,1.8987,1.9058,1.915,1.9227,1.9246,1.9276,1.9283,1.9304,1.9242,1.9235,1.923,1.921,1.9289,1.9289,1.9363,1.9364,1.9364]}]]